www.pogodaiklimat.ru

Погода и климат >> Архив погоды >> Россия >> Волгоградская область >> Фролово


АРХИВ ПОГОДЫ в Фролове

Время (UTC), дата Ветер
(напр.,м/с)
 
Видим.   Явления Облачность Т
(С)
Тd
(С)
f
(%)
Тe
(С)
Тes
(С)
Комфортность P
(гПа)
Po
(гПа)
Тmin
(С)
Tmax
(С)
R
(мм)
R24
(мм)
S
(см)
00 16.09 В 1 20 км 6/0
[Cs]
+5.5 +1.4 75 +4 +4 1018.2 1003.4
03 16.09 Ю 1 10 км 6/0
[Cs]
+7.0 +1.5 68 +6 +6 1016.9 1002.2 +5.2
06 16.09 ЮЗ 4 10 км 3/0
[Ci fib]
+17.1 +1.1 34 +17 +20 1014.8 1000.7
09 16.09 ЮЗ 6-11
{15}
10 км ясно +21.8 +0.7 25 +21 +25 комфорт 1011.9 998.0
12 16.09 ЮЗ 7-13
{15}
10 км 6/0
[Ci]
+24.0 -1.5 18 +22 +24 комфорт 1009.0 995.2
15 16.09 ЮЗ 4
{14}
10 км 3/0
[Ci fib]
+21.7 -0.8 22 +21 +21 комфорт 1007.8 994.0 +24.2
18 16.09 ЮЗ 3 20 км 3/0
[Ac und]
+17.8 0.0 30 +18 +18 1007.9 993.9
21 16.09 З 1 20 км 8/0
[Ac und]
+15.8 +0.1 34 +17 +17 1007.8 993.7
00 17.09 штиль 0 20 км 9/9 600 м
[Sc]
+14.4 +1.6 42 +14 +14 1007.1 992.9
03 17.09 Ю 1 10 км 9/9 600 м
[Sc]
+14.0 +2.5 46 +15 +15 1006.6 992.5 +13.5
06 17.09 ЮЗ 1 10 км 9/9 600 м
[Sc]
+14.8 +4.1 49 +15 +16 1006.8 992.7
09 17.09 Ю 2 10 км 9/8 600 м
[Sc Ac und]
+18.5 +4.2 39 +19 +20 1005.4 991.5
12 17.09 З 3
{11}
10 км 10/8 600 м
[Sc Ac As]
+22.3 +5.9 34 +23 +23 комфорт 1003.7 990.0
15 17.09 З 3 10 км 10/4 600 м
[Sc Ac As]
+18.8 +6.5 45 +19 +19 1004.4 990.5 +23.2
18 17.09 З 3 20 км 8/0
[Ac und]
+14.6 +8.7 68 +14 +14 1005.9 991.8
21 17.09 З 1 20 км ясно +10.6 +7.5 81 +10 +10 1006.5 992.2
00 18.09 штиль 0 20 км ясно +7.3 +6.8 97 +6 +6 1007.1 992.6
03 18.09 штиль 0 10 км ясно +6.1 +6.0 99 +5 +5 1007.8 993.2 +5.8
06 18.09 Ю 2 10 км 4/0
[Cs]
+14.7 +8.1 65 +14 +19 1007.2 993.1
09 18.09 ЮЗ 5-10
{10}
10 км 4/4 1000 м
[Cu hum]
+19.6 +3.9 35 +20 +23 1005.6 991.7
12 18.09 ЮЗ 4-10
{11}
10 км 9/9 600 м
[Sc]
+19.4 +5.6 40 +20 +20 1002.9 989.1
15 18.09 ЮВ 1
{10}
4000 м слаб. ливневой дождь 10/10 300 м
[Cb calv]
+13.1 +12.7 97 +13 +13 1001.0 986.9 +20.9 6
18 18.09 З 4 20 км {ливн. осадки} 8/8 600 м
[Sc]
+12.9 +12.5 97 +11 +11 1002.4 988.3
21 18.09 З 3
{16}
20 км {ливн. осадки} 9/9 600 м
[Sc]
+8.2 +7.3 94 +5 +5 1005.2 990.7
00 19.09 ЮЗ 5 20 км {ливн. осадки} 6/6 600 м
[Sc]
+7.8 +4.2 78 +4 +4 1006.5 992.1
03 19.09 З 5-10
{13}
10 км 8/8 600 м
[Sc]
+7.7 +3.3 74 +4 +4 1008.7 994.2 +7.1 2
06 19.09 З 6-12
{13}
10 км 8/8 600 м
[Sc]
+10.1 +4.6 69 +7 +7 1012.1 997.7
09 19.09 З 5
{12}
10 км 9/9 600 м
[Sc]
+11.6 +5.3 65 +9 +10 1014.7 1000.3
12 19.09 З 4
{11}
10 км 9/9 600 м
[Sc]
+12.9 +5.1 59 +11 +12 1016.0 1001.6
15 19.09 ЮЗ 2 10 км 4/4 600 м
[Sc]
+11.2 +4.7 64 +10 +10 1017.0 1002.6 +14.1
18 19.09 ЮЗ 1 20 км ясно +7.1 +4.1 81 +6 +6 1018.2 1003.5
21 19.09 штиль 0 20 км ясно +4.4 +3.9 97 +3 +3 1018.3 1003.5
00 20.09 штиль 0 20 км 4/0
[Cs]
+4.5 +4.3 99 +3 +3 1018.3 1003.5
03 20.09 Ю 1 10 км 6/0
[Cc]
+4.4 +3.6 95 +3 +3 1018.0 1003.2 +3.5
06 20.09 ЮЗ 2 10 км 6/0
[Cs]
+11.0 +5.1 67 +10 +14 1017.8 1003.3
09 20.09 З 4 10 км 8/4 600 м
[Cu hum Ci fib]
+15.0 +3.5 46 +14 +17 1016.3 1002.1
12 20.09 З 3 10 км 9/6 600 м
[Cu hum Ac und]
+15.6 +1.8 39 +15 +16 1014.8 1000.6
15 20.09 штиль 0 10 км 10/0
[Ac As]
+12.5 +3.2 53 +12 +12 1014.4 1000.0 +16.4
18 20.09 штиль 0 20 км 10/0
[Ac As]
+9.5 +4.8 72 +9 +9 1014.9 1000.4
21 20.09 штиль 0 20 км 10/0
[Ac As]
+9.2 +4.4 72 +9 +9 1014.6 1000.0
00 21.09 штиль 0 20 км 4/0
[Ac und]
+6.3 +4.8 90 +5 +5 1013.8 999.2
03 21.09 штиль 0 10 км 8/0
[Cs]
+3.9 +3.6 98 +3 +3 1013.8 999.0 +3.9
06 21.09 СЗ 1 10 км ясно +11.7 +5.3 65 +12 +17 1013.4 999.0 +3.6
09 21.09 СЗ 2 10 км 8/8 600 м
[Cb calv]
+14.6 +1.4 41 +15 +16 1012.6 998.4
12 21.09 З 4
{11}
10 км 8/8 600 м
[Cb calv]
+15.3 +0.6 37 +15 +15 1012.3 998.1
15 21.09 штиль 0
{12}
10 км 8/4 1000 м
[Cu med, cong Ac cast]
+9.7 +3.3 64 +9 +9 1013.1 998.6 +16.7
18 21.09 штиль 0 20 км ясно +5.2 +3.1 86 +4 +4 1013.8 999.1
21 21.09 З 1 20 км ясно +4.6 +3.8 95 +3 +3 1013.9 999.1
00 22.09 штиль 0 20 км 8/0
[Ac und]
+3.3 +2.9 97 +2 +2 1013.4 998.6
03 22.09 Ю 1 10 км 9/5 600 м
[Sc Ac und]
+2.3 +2.1 99 0 0 1013.0 998.2 +2.0
06 22.09 ЮЗ 4 10 км 10/0
[Ac As]
+7.4 +2.8 73 +4 +5 1011.8 997.2
09 22.09 ЮЗ 5-11
{15}
4000 м слаб. ливневой дождь 10/10 300 м
[Cb calv]
+7.8 +3.9 76 +4 +4 1007.6 993.1
12 22.09 ЮЗ 5-10
{14}
4000 м ливневой дождь 10/10 300 м
[Cb calv]
+8.0 +7.4 96 +4 +4 1004.5 990.1
15 22.09 З 5
{11}
4000 м слаб. ливневой дождь 10/10 300 м
[Cb calv]
+10.8 +10.0 95 +8 +8 1003.3 989.1 +10.8 5
18 22.09 З 3
{10}
10 км слаб. ливневой дождь 10/10 300 м
[Cb calv]
+9.5 +7.5 87 +7 +7 1005.3 990.9
21 22.09 З 3
{12}
20 км 9/9 600 м
[Sc]
+8.1 +3.1 71 +6 +6 1006.6 992.2

 

Местоположение метеостанции Фролово (Волгоградская область, Россия): широта 49.80 долгота 43.67 высота над уровнем моря 119 м.

В архиве по умолчанию представлена погода в Фролове за последнюю неделю. Архивные данные за месяц целиком и за предыдущие месяцы, начиная с января 2011 года, Вы можете получить, выбрав интересующий диапазон дат из раскрывающегося списка и нажав кнопку "Ввод!".


*Определитесь, кто Вы:
робот инопланетянин человек

Внимание! Время в таблицах - всемирное. Для получения местного времени необходимо прибавить поправку, которая равна 3 ч.

Смотрите также архив погоды в соседних городах и на ближайших метеорологических станциях:

Погода в Михайловке (Волгоградская область, Россия) (42 км)
Погода в Иловле (Волгоградская область, Россия) (60 км)
Погода в Ольховке (Волгоградская область, Россия) (64 км)
Погода в Даниловке (Волгоградская область, Россия) (71 км)
Погода в Серафимовиче (Волгоградская область, Россия) (72 км)
Погода в Новоаннинском (Волгоградская область, Россия) (108 км)
Погода в Волгограде (Волгоградская область, Россия) (124 км)
Погода в Калаче-на-Дону (Волгоградская область, Россия) (125 км)
Погода в Камышине (Волгоградская область, Россия) (125 км)
Погода в Елани (Волгоградская область, Россия) (128 км)

Пояснения к столбцам:

Ветер - указаны скорость ветра в м/с - средняя за 10 мин, порывы в срок и между сроками (в фигурных скобках) и направление, откуда дует ветер: С - северный, СВ - северо-восточный, В - восточный, ЮВ - юго-восточный, Ю - южный, ЮЗ - юго-западный, З - западный, СЗ - северо-западный.
Видимость - горизонтальная дальность видимости в метрах или километрах. При видимости от 1 до 10 км при отсутствии осадков обычно наблюдается дымка, при ухудшении видимости до 1 км и менее - туман. В сухую погоду видимость может ухудшаться дымом, пылью или мглою.
Явления - указаны атмосферные явления, наблюдавшиеся в срок или в последний час перед сроком; фигурными скобками обозначены явления, наблюдавшиеся между сроками (за 1-3 часа до срока); квадратными скобками обозначены град или гололедные отложения с указанием их диаметра в мм.
Облачность - указаны через наклонную черту общая и нижняя облачность в баллах и высота нижней границы облаков в метрах; квадратными скобками обозначены формы облаков: Ci - перистые, Cs - перисто-слоистые, Cc - перисто-кучевые, Ac - высококучевые, As - высокослоистые, Sc - слоисто-кучевые, Ns - слоисто-дождевые, Cu - кучевые, Cb - кучево-дождевые. Подробнее классификацию облаков см. в Атласе облаков (PDF).
T - Температура воздуха - температура, измеренная на высоте 2 м над землей.
Td - Температура точки росы - температура, при понижении до которой содержащийся в воздухе водяной пар достигнет насыщения.
f - Относительная влажность воздуха - влажноcть воздуха, измеренная на высоте 2 м над землей.
Te - Эффективная температура - температура, которую ощущает одетый по сезону человек в тени. Характеристика душности погоды. При расчете учитывается влияние влажности воздуха и скорости ветра на теплоощущения человека.
Tes - Эффективная температура на солнце - температура, которую ощущает человек, с поправкой на солнечный нагрев. Характеристика знойности погоды. Зависит от высоты солнца над горизонтом, облачности и скорости ветра. Ночью, в пасмурную погоду, а также при ветре 12 м/с и более поправка равна нулю.
P - Атмосферное давление - приведенное к уровню моря атмосферное давление.
Po - Атмосферное давление - измеренное на уровне метеостанции атмосферное давление.
Tmin - Минимальная температура - минимум температуры воздуха на высоте 2 м над землей.
Tmax - Максимальная температура - максимум температуры воздуха на высоте 2 м над землей.
R - Количество осадков - Количество выпавших осадков за период времени, мм. При наведении курсора мыши на число - период времени, за который выпало указанное количество осадков.
R24 - Количество осадков - Количество выпавших осадков за 24 часа, мм.
S - Снежный покров - Высота снежного покрова, см. При наведении курсора мыши на число - состояние снежного покрова и степень покрытия местности в баллах.